Weather History for Fort Morgan, CO

Change the Weather History Date:

Saturday, January 12, 2013

  Actual Average (KAKO) Record (KAKO)
Temperature  
Mean Temperature 6 °F 29 °F  
Max Temperature 16 °F 40 °F 64 °F (1959)
Min Temperature -4 °F 17 °F -28 °F (1963)
Degree Days  
Heating Degree Days 59    
Month to date heating degree days  
Cooling Degree Days 0    
Month to date cooling degree days  
Moisture  
Dew Point -2 °F    
Average Humidity 72    
Maximum Humidity 82    
Minimum Humidity 54    
Precipitation  
Precipitation 0.00 in 0.01 in 0.25 in (1992)
Month to date precipitation 0.09  
Year to date precipitation 0.09  
Sea Level Pressure  
Sea Level Pressure 29.97 in    
Wind  
Wind Speed 7 mph (NW)    
Max Wind Speed 15 mph    
Max Gust Speed 21 mph    
Visibility 10 miles    
Events      
T = Trace of Precipitation, MM = Missing Value Source: NWS Daily Summary

Daily Weather History Graph

Daily Weather History Graph

Search for Another Location

Airport:

Trip Planner

Search our weather history database for the weather conditions in past years. The results will help you decide how hot, cold, wet, or windy it might be!

Date:

Astronomy

Jan. 12, 2013 Rise Set
Actual Time 7:17 AM MST 4:50 PM MST
Civil Twilight 6:46 AM MST 5:20 PM MST
Nautical Twilight 6:13 AM MST 5:54 PM MST
Astronomical Twilight 5:40 AM MST 6:27 PM MST
Moon 7:37 AM MST (1/12) 6:22 PM MST (1/12)
Length of Visible Light 10h 33m
Length of Day
9h 33m
New Moon, 1% of the Moon is Illuminated
Jan 12
New Moon
Jan 18
First Quarter
Jan 26
Full
Feb 3
Last Quarter
Feb 10
New

Hourly Weather History & Observations

Time (MST) Temp. Windchill Dew Point Humidity Pressure Visibility Wind Dir Wind Speed Gust Speed Precip Events Conditions
12:35 AM 3.6 °F -9.8 °F -2.0 °F 78% 29.84 in 10.0 mi North 8.1 mph - N/A   Clear
12:55 AM 4.1 °F -12.7 °F -1.8 °F 76% 29.84 in 10.0 mi North 12.7 mph - N/A   Clear
1:15 AM 4.1 °F -6.7 °F -2.2 °F 75% 29.85 in 10.0 mi ENE 5.8 mph - N/A   Clear
1:35 AM 1.8 °F - -3.5 °F 79% 29.87 in 10.0 mi Calm Calm - N/A   Clear
1:55 AM 3.0 °F - -2.7 °F 77% 29.88 in 10.0 mi Calm Calm - N/A   Clear
2:15 AM 1.0 °F -11.7 °F -4.7 °F 77% 29.88 in 10.0 mi NE 6.9 mph - N/A   Mostly Cloudy
2:35 AM 0.1 °F -7.7 °F -4.7 °F 80% 29.88 in 10.0 mi NNE 3.5 mph - N/A   Scattered Clouds
2:55 AM 1.6 °F -6.0 °F -4.5 °F 76% 29.88 in 10.0 mi WNW 3.5 mph - N/A   Scattered Clouds
3:15 AM 0.5 °F -7.3 °F -4.4 °F 80% 29.88 in 10.0 mi North 3.5 mph - N/A   Scattered Clouds
3:35 AM -0.0 °F -9.9 °F -4.9 °F 80% 29.88 in 10.0 mi NW 4.6 mph - N/A   Clear
3:55 AM 0.7 °F -10.7 °F -4.9 °F 77% 29.87 in 10.0 mi WNW 5.8 mph - N/A   Clear
4:15 AM 3.4 °F -10.0 °F -2.7 °F 76% 29.87 in 10.0 mi West 8.1 mph - N/A   Clear
4:35 AM 2.7 °F -4.8 °F -3.8 °F 74% 29.87 in 10.0 mi WNW 3.5 mph - N/A   Clear
4:55 AM 1.4 °F -13.5 °F -4.7 °F 76% 29.88 in 10.0 mi WNW 9.2 mph - N/A   Clear
5:15 AM -0.4 °F -12.0 °F -5.6 °F 79% 29.88 in 10.0 mi West 5.8 mph - N/A   Clear
5:35 AM 1.8 °F -14.0 °F -4.7 °F 74% 29.89 in 10.0 mi NNW 10.4 mph - N/A   Clear
5:55 AM 0.9 °F -13.1 °F -5.4 °F 75% 29.91 in 10.0 mi NW 8.1 mph - N/A   Clear
6:15 AM -0.8 °F - -6.7 °F 76% 29.93 in 10.0 mi Calm Calm - N/A   Clear
6:35 AM -0.6 °F - -7.6 °F 72% 29.95 in 10.0 mi Calm Calm - N/A   Clear
6:55 AM 1.6 °F -6.0 °F -5.1 °F 74% 29.96 in 10.0 mi WNW 3.5 mph - N/A   Clear
7:15 AM -4.5 °F -19.7 °F -10.3 °F 76% 29.97 in 10.0 mi WSW 8.1 mph - N/A   Clear
7:35 AM -4.4 °F -16.7 °F -8.7 °F 82% 29.98 in 10.0 mi West 5.8 mph - N/A   Clear
7:55 AM -2.4 °F -17.1 °F -6.9 °F 81% 29.99 in 10.0 mi WNW 8.1 mph - N/A   Clear
8:15 AM 0.1 °F -16.0 °F -4.5 °F 81% 30.00 in 10.0 mi WNW 10.4 mph - N/A   Clear
8:35 AM 1.6 °F -12.2 °F -3.8 °F 78% 30.00 in 10.0 mi WNW 8.1 mph - N/A   Clear
8:55 AM 3.6 °F -9.8 °F -1.8 °F 78% 30.00 in 10.0 mi West 8.1 mph - N/A   Clear
9:15 AM 5.5 °F -6.3 °F -0.8 °F 75% 30.01 in 10.0 mi West 6.9 mph - N/A   Clear
9:35 AM 6.8 °F -4.8 °F -0.0 °F 74% 30.02 in 10.0 mi West 6.9 mph - N/A   Clear
9:55 AM 9.1 °F -4.9 °F 1.2 °F 70% 30.02 in 10.0 mi WNW 10.4 mph - N/A   Clear
10:15 AM 10.8 °F -1.1 °F 0.9 °F 64% 30.01 in 10.0 mi WNW 8.1 mph - N/A   Clear
10:35 AM 12.6 °F 2.2 °F 1.8 °F 62% 30.01 in 10.0 mi WNW 6.9 mph - N/A   Clear
10:55 AM 13.8 °F -0.5 °F 1.0 °F 57% 30.00 in 10.0 mi NW 12.7 mph 16.1 mph N/A   Clear
11:15 AM 14.9 °F 1.6 °F 1.4 °F 55% 29.99 in 10.0 mi NNW 11.5 mph - N/A   Clear
11:35 AM 15.1 °F 0.5 °F 2.1 °F 57% 29.99 in 10.0 mi NW 13.8 mph - N/A   Clear
11:55 AM 15.4 °F 1.0 °F 2.1 °F 56% 29.98 in 10.0 mi NNW 13.8 mph - N/A   Clear
12:15 PM 15.6 °F 3.2 °F 3.0 °F 58% 29.98 in 10.0 mi NW 10.4 mph 16.1 mph N/A   Clear
12:35 PM 15.6 °F 4.0 °F 3.4 °F 59% 29.96 in 10.0 mi NNW 9.2 mph - N/A   Clear
12:55 PM 16.3 °F 3.4 °F 2.7 °F 55% 29.96 in 10.0 mi NNW 11.5 mph - N/A   Clear
1:15 PM 16.3 °F 2.7 °F 2.7 °F 55% 29.96 in 10.0 mi North 12.7 mph - N/A   Clear
1:35 PM 16.0 °F 2.9 °F 1.9 °F 54% 29.96 in 10.0 mi North 11.5 mph 18.4 mph N/A   Clear
1:55 PM 16.2 °F 2.5 °F 2.1 °F 54% 29.96 in 10.0 mi North 12.7 mph 18.4 mph N/A   Clear
2:15 PM 15.6 °F 1.8 °F 2.1 °F 55% 29.96 in 10.0 mi North 12.7 mph - N/A   Clear
2:35 PM 15.3 °F 0.2 °F 1.9 °F 56% 29.96 in 10.0 mi North 15.0 mph - N/A   Clear
2:55 PM 15.1 °F 0.5 °F 2.1 °F 57% 29.96 in 10.0 mi North 13.8 mph 19.6 mph N/A   Clear
3:15 PM 14.5 °F -0.2 °F 2.1 °F 58% 29.97 in 10.0 mi North 13.8 mph 20.7 mph N/A   Clear
3:35 PM 14.0 °F -0.2 °F 2.1 °F 59% 29.97 in 10.0 mi North 12.7 mph - N/A   Clear
3:55 PM 13.1 °F -0.7 °F 1.0 °F 59% 29.98 in 10.0 mi North 11.5 mph - N/A   Clear
4:15 PM 12.4 °F 0.0 °F 0.9 °F 60% 29.98 in 10.0 mi North 9.2 mph - N/A   Clear
4:35 PM 10.6 °F -1.3 °F 0.5 °F 64% 29.99 in 10.0 mi NNW 8.1 mph - N/A   Clear
4:55 PM 6.6 °F -6.1 °F -1.3 °F 70% 29.99 in 10.0 mi NNW 8.1 mph - N/A   Clear
5:15 PM 4.5 °F -8.7 °F -2.4 °F 73% 30.00 in 10.0 mi North 8.1 mph - N/A   Clear
5:35 PM 3.6 °F -8.7 °F -2.6 °F 76% 30.01 in 10.0 mi North 6.9 mph - N/A   Clear
6:15 PM 0.9 °F -11.9 °F -4.4 °F 79% 30.01 in 10.0 mi NNW 6.9 mph - N/A   Clear
6:35 PM 1.2 °F -10.1 °F -4.2 °F 78% 30.01 in 10.0 mi NNW 5.8 mph - N/A   Clear
6:55 PM 2.8 °F -9.5 °F -2.4 °F 79% 30.03 in 10.0 mi NW 6.9 mph - N/A   Clear
7:15 PM 0.7 °F -13.3 °F -4.2 °F 80% 30.03 in 10.0 mi NNW 8.1 mph - N/A   Clear
7:35 PM 0.3 °F -14.8 °F -4.7 °F 79% 30.03 in 10.0 mi NNW 9.2 mph - N/A   Clear
7:55 PM -0.4 °F -13.4 °F -5.1 °F 81% 30.03 in 10.0 mi NNW 6.9 mph - N/A   Clear
8:15 PM -0.0 °F -11.6 °F -4.9 °F 80% 30.03 in 10.0 mi WNW 5.8 mph - N/A   Scattered Clouds
8:35 PM 0.3 °F -9.5 °F -4.9 °F 79% 30.03 in 10.0 mi NNW 4.6 mph - N/A   Scattered Clouds
8:55 PM 0.5 °F -12.3 °F -4.4 °F 80% 30.02 in 10.0 mi North 6.9 mph - N/A   Mostly Cloudy
9:15 PM 0.1 °F -7.7 °F -4.5 °F 81% 30.02 in 10.0 mi NNW 3.5 mph - N/A   Mostly Cloudy
9:35 PM -0.2 °F -11.8 °F -5.3 °F 79% 30.03 in 10.0 mi NNW 5.8 mph - N/A   Scattered Clouds
9:55 PM -2.2 °F -14.2 °F -6.9 °F 80% 30.03 in 10.0 mi NNW 5.8 mph - N/A   Clear
10:15 PM -0.8 °F - -5.4 °F 81% 30.03 in 10.0 mi Calm Calm - N/A   Scattered Clouds
10:35 PM -0.0 °F -13.0 °F -5.1 °F 79% 30.03 in 10.0 mi WNW 6.9 mph - N/A   Overcast
10:55 PM 1.0 °F -10.3 °F -3.8 °F 80% 30.04 in 10.0 mi West 5.8 mph - N/A   Mostly Cloudy
11:15 PM 1.6 °F -8.0 °F -3.5 °F 79% 30.04 in 10.0 mi WNW 4.6 mph - N/A   Mostly Cloudy
11:35 PM 0.5 °F -11.0 °F -4.0 °F 81% 30.04 in 10.0 mi WNW 5.8 mph - N/A   Overcast
11:55 PM 0.5 °F -11.0 °F -4.0 °F 81% 30.04 in 10.0 mi West 5.8 mph - N/A   Overcast